Location: B�rnest
(49.9341°N, 12.0868°E)
Time: 05:35:48
(UTC+00:00)

Daily predictions for brighter satellites

Satellite Brightness Start Highest point End
(mag) Time Altitude Azimuth Time Altitude Azimuth Time Altitude Azimuth
ATLAS 2AS CENTAUR R/B 4.5 00:29:09 29° N 00:29:09 29° N 00:34:51 10° NE
Cosmos 2237 Rocket 4.4 01:38:07 20° NNE 01:38:07 20° NNE 01:39:50 10° NNE
CZ-4C R/B 4.0 01:52:49 29° NNE 01:52:49 29° NNE 01:56:36 10° NE
USA 267 4.0 01:49:39 10° E 01:54:12 46° ENE 01:54:12 46° ENE
ATLAS 2AS CENTAUR R/B 4.1 02:16:34 19° NNW 02:21:28 38° NNE 02:28:14 10° E
SL-16 R/B 3.5 02:26:04 33° N 02:26:04 33° N 02:29:16 10° NNE
IDEFIX/ARIANE 42P 3.7 02:22:42 10° NNE 02:26:30 40° ENE 02:26:30 40° ENE
ATLAS CENTAUR R/B 4.0 02:35:27 16° NNE 02:35:27 16° NNE 02:36:33 10° NNE
Cosmos 1943 3.9 02:37:53 49° E 02:37:53 49° E 02:42:53 10° NE
ADEOS II 3.9 02:33:24 10° N 02:35:25 23° N 02:35:25 23° N
Cosmos 1603 4.2 02:41:50 58° ENE 02:41:50 58° ENE 02:46:39 10° NNE
CZ-2D R/B 4.5 02:51:23 10° NNW 02:51:53 12° NNW 02:51:53 12° NNW
ADEOS 4.4 02:53:21 10° NNE 02:58:24 47° E 02:59:49 38° SE
USA 215 3.2 02:57:43 10° ENE 03:04:16 71° SE 03:05:21 60° SSW
NOSS 2-2 (C) 4.4 03:04:52 68° NW 03:05:47 89° NE 03:13:30 10° SE
NOSS 2-2 (E) 4.4 03:05:59 73° WNW 03:06:37 83° SW 03:14:31 10° SE
Resurs 1-4 Rocket 4.5 03:05:25 10° NNW 03:05:42 11° NNW 03:05:42 11° NNW
Cosmos 2221 3.5 03:15:45 41° NNE 03:15:45 41° NNE 03:18:38 10° N
STARLINK-1084 4.4 03:17:29 50° ENE 03:17:29 50° ENE 03:20:37 10° ENE
Cosmos 1869 4.3 03:18:31 43° NE 03:18:31 43° NE 03:21:21 10° NNE
CZ-2C R/B 3.1 03:12:43 10° NNE 03:17:45 53° E 03:20:21 26° SSE
STARLINK-1106 4.3 03:20:06 52° ENE 03:20:06 52° ENE 03:23:18 10° ENE
Cosmos 1140 Rocket 3.5 03:18:48 70° SSE 03:19:20 78° ESE 03:24:36 10° NNE
Cosmos 2237 Rocket 4.1 03:19:56 16° NNW 03:19:56 16° NNW 03:23:05 10° N
Cosmos 614 Rocket 4.0 03:24:28 63° NW 03:24:28 63° NW 03:29:18 10° NNE
STARLINK-1112 4.1 03:24:53 58° ENE 03:24:53 58° ENE 03:28:17 10° ENE
BREEZE M DEB (TANK) 3.4 03:26:03 54° ESE 03:26:03 54° ESE 03:30:44 10° E
ISS -1.4 03:26:22 20° ESE 03:26:22 20° ESE 03:28:19 10° E
PSLV R/B 4.2 03:23:34 10° NNE 03:26:36 46° N 03:26:36 46° N
COSMOS 2441 4.2 03:24:00 10° NNE 03:28:54 84° WNW 03:29:10 79° SW
Cosmos 2084 3.7 03:31:29 66° N 03:31:29 66° N 03:35:35 10° NE
Cosmos 1656 Rocket 4.4 03:35:56 37° SSW 03:35:56 37° SSW 03:39:30 10° S
H-2A R/B 4.0 03:29:51 10° NNE 03:34:05 39° E 03:38:18 10° SSE
Cosmos 1153 Rocket 4.4 03:29:10 10° NNW 03:35:08 56° W 03:36:13 49° SW
Cosmos 1633 Rocket 4.3 03:34:08 10° N 03:38:19 41° ENE 03:42:30 10° SE
Cosmos 2173 Rocket 3.9 03:32:22 10° N 03:38:40 85° W 03:44:50 10° S
NOSS 3-4 (A) 4.3 03:32:40 13° NW 03:38:50 60° NE 03:46:16 10° ESE
NOSS 3-4 (C) 4.3 03:32:45 13° NW 03:38:56 59° NE 03:46:21 10° ESE
USA 267 3.2 03:32:42 10° SE 03:39:10 62° SW 03:41:35 39° WNW
Meteor 2-2 Rocket 4.3 03:35:45 26° SSW 03:39:23 88° W 03:45:25 10° NNE
Cosmos 1238 Rocket 3.5 03:34:27 10° N 03:40:04 76° E 03:44:38 10° SSE
Cosmos 407 Rocket 3.5 03:40:17 55° WNW 03:40:31 56° WNW 03:45:43 10° NNE
CZ-4C R/B 4.0 03:37:59 18° NW 03:40:49 25° N 03:46:28 10° NE
Cosmos 1954 Rocket 4.0 03:41:06 37° SSW 03:43:16 85° ESE 03:48:38 10° NNE
CBERS 1 LM4 rocket 4.5 03:38:33 10° N 03:43:19 54° WNW 03:43:19 54° WNW
Cosmos 1727 Rocket 4.0 03:45:38 41° SW 03:47:35 57° WNW 03:53:41 10° N
Cosmos 1666 Rocket 4.0 03:43:57 10° N 03:48:21 62° ENE 03:52:41 10° SSE
ARIANE 5 R/B 4.4 03:45:53 10° NNW 03:47:36 16° NNW 03:47:36 16° NNW
NOSS 3-3 (A) 4.2 03:45:58 26° SSW 03:49:26 67° SE 03:56:05 10° NE
NOSS 3-3 (C) 4.2 03:46:00 25° SSW 03:49:33 66° SE 03:56:11 10° NE
COSMOS 2455 3.8 03:46:16 10° NNW 03:52:07 47° NE 03:57:55 10° ESE
COSMO-SKYMED 1 3.4 03:50:00 10° SE 03:54:12 51° ENE 03:58:26 10° N
STARLINK-1129 4.3 03:57:35 32° S 03:57:35 32° S 03:59:56 10° SE
Cosmos 1459 Rocket 3.9 03:51:24 10° NNW 03:57:33 65° W 04:03:46 10° S
CZ-4B R/B 3.3 03:55:03 10° NNE 03:58:37 54° E 04:02:08 10° S
STARLINK-1098 3.7 03:58:22 55° WNW 03:59:01 65° NNW 04:03:10 10° ENE
STARLINK-1134 4.2 04:04:18 32° S 04:04:18 32° S 04:06:50 10° SSE
STARLINK-1123 3.7 04:03:08 49° WNW 04:03:59 63° NNW 04:08:07 10° ENE
SJ-6F 4.3 04:01:03 10° N 04:05:08 66° WNW 04:06:36 37° SW
Cosmos 1000 Rocket 4.4 03:59:12 10° SSW 04:05:23 74° W 04:11:42 10° N
Cosmos 1862 3.1 04:02:37 10° NNW 04:06:35 66° W 04:10:31 10° S
STARLINK-1135 4.2 04:07:16 32° S 04:07:16 32° S 04:09:54 10° SSE
IDEFIX/ARIANE 42P 3.4 04:02:42 10° N 04:07:10 29° WNW 04:07:19 29° WNW
Cosmos 2100 Rocket 4.0 04:01:14 10° NNW 04:07:11 51° W 04:13:04 10° SSW
Cosmos 468 Rocket 3.9 04:02:43 10° NNW 04:08:04 82° WSW 04:13:19 10° SSE
STARLINK-1118 3.6 04:08:35 37° NNE 04:08:35 37° NNE 04:10:48 10° ENE
STARLINK-1097 3.8 04:07:56 44° WNW 04:09:00 62° NNW 04:13:08 10° ENE
SL-16 R/B 3.9 04:07:57 16° NW 04:09:01 17° NNW 04:12:38 10° N
STARLINK-1141 4.2 04:10:16 32° SSW 04:10:16 32° SSW 04:12:59 10° SSE
Sich 1 3.0 04:06:05 10° NNW 04:10:20 58° W 04:14:36 10° S
Meteor 1-31 Rocket 2.6 04:06:51 10° NNE 04:10:41 84° WNW 04:13:40 16° SSW
Cosmos 1346 Rocket 3.5 04:07:08 10° N 04:10:59 53° ENE 04:14:47 10° SSE
STARLINK-1140 4.2 04:13:16 31° SSW 04:13:16 31° SSW 04:16:04 10° SSE
ATLAS CENTAUR R/B 3.8 04:11:38 11° NNW 04:13:01 12° NNW 04:14:50 10° NNE
ATLAS 2AS CENTAUR R/B 2.9 04:05:39 10° NW 04:13:25 88° NE 04:20:30 10° SE
STARLINK-1099 3.8 04:12:42 39° WNW 04:14:00 60° N 04:18:07 10° ENE
ERBS 4.3 04:13:38 13° S 04:15:57 26° SE 04:18:48 10° ENE
STARLINK-1156 4.2 04:16:17 30° SSW 04:16:17 30° SSW 04:19:09 10° SSE
Cosmos 1340 2.7 04:12:50 10° N 04:16:37 78° ENE 04:20:23 10° SSE
MSX 4.4 04:13:09 10° N 04:18:22 37° WNW 04:20:44 26° WSW
STARLINK-1104 3.8 04:17:30 35° WNW 04:19:00 59° N 04:23:07 10° ENE
STARLINK-1148 4.3 04:19:19 29° SSW 04:19:19 29° SSW 04:22:14 10° SSE
Cosmos 1943 3.9 04:19:42 27° W 04:21:42 35° NW 04:26:53 10° NNE
STARLINK-1158 4.3 04:22:20 28° SW 04:22:20 28° SW 04:25:20 10° SSE
Cosmos 489 Rocket 4.4 04:16:12 10° NNW 04:22:25 67° WSW 04:28:33 10° S
Cosmos 192 4.3 04:17:50 10° NNW 04:22:41 60° WSW 04:27:30 10° S
STARLINK-1144 3.9 04:22:17 32° WNW 04:24:00 58° N 04:28:07 10° ENE
Cosmos 1741 Rocket 4.1 04:20:10 10° SSW 04:25:25 78° ESE 04:30:45 10° NNE
Cosmos 1151 Rocket 3.4 04:21:41 10° S 04:25:58 66° E 04:30:19 10° NNE
Cosmos 1725 Rocket 3.9 04:20:10 10° NNW 04:26:25 70° W 04:32:40 10° S
Cosmos 1805 Rocket 4.3 04:23:46 10° NNW 04:27:32 29° W 04:31:18 10° SSW
STARLINK-1162 4.4 04:27:53 24° SW 04:27:53 24° SW 04:30:44 10° SSE
Cosmos 841 Rocket 3.7 04:23:03 10° NNW 04:28:19 73° ENE 04:33:35 10° SSE
Cosmos 1470 Rocket 3.8 04:24:27 10° N 04:28:57 75° E 04:33:26 10° SSE
STARLINK-1103 3.9 04:27:03 29° WNW 04:28:58 57° N 04:33:05 10° ENE
Cosmos 220 Rocket 3.9 04:24:54 10° NNW 04:29:04 61° WSW 04:33:13 10° S
Cosmos 1763 Rocket 3.5 04:24:11 10° NNW 04:29:29 68° WSW 04:34:44 10° S
STARLINK-1157 4.5 04:30:38 23° SW 04:30:41 23° SW 04:33:31 10° SSE
STARLINK-1128 3.9 04:29:18 27° WNW 04:31:22 57° N 04:35:30 10° ENE
Cosmos 2208 Rocket 4.1 04:26:19 10° NNW 04:31:36 83° ENE 04:36:47 10° SSE
Cosmos 676 Rocket 4.5 04:29:10 22° WSW 04:32:12 42° WNW 04:37:18 10° NNE
Cosmos 2123 Rocket 3.9 04:26:36 10° SSW 04:32:53 75° W 04:39:11 10° N
STARLINK-1101 3.9 04:31:51 26° WNW 04:34:00 56° N 04:38:05 10° ENE
STARLINK-1113 4.0 04:34:04 24° WNW 04:36:21 56° N 04:40:28 10° ENE
ADEOS 4.4 04:33:13 10° N 04:37:45 31° WNW 04:40:38 18° WSW
STARLINK-1102 4.0 04:36:37 23° WNW 04:38:59 56° N 04:43:04 10° ENE
USA 116 3.2 04:37:38 10° SSE 04:40:44 80° ENE 04:44:00 10° NNW
STARLINK-1119 4.0 04:38:52 22° WNW 04:41:21 56° N 04:45:29 10° ENE
SKYMED 2 3.6 04:38:00 10° S 04:42:15 55° W 04:46:33 10° NNW
CZ-4B R/B 4.5 04:39:25 10° N 04:43:37 43° WNW 04:47:51 10° SW
STARLINK-1111 4.0 04:41:25 21° WNW 04:43:59 55° N 04:48:04 10° ENE
STARLINK-1066 3.4 04:43:55 22° WNW 04:45:27 45° N 04:48:17 10° E
STARLINK-1081 3.4 04:44:07 22° WNW 04:45:40 45° N 04:48:31 10° E
STARLINK-1070 3.4 04:44:19 22° WNW 04:45:53 45° N 04:48:45 10° E
STARLINK-1069 3.4 04:44:33 22° WNW 04:46:07 45° N 04:48:58 10° E
STARLINK-1085 3.4 04:44:46 22° WNW 04:46:20 45° N 04:49:11 10° E
STARLINK-1114 4.0 04:43:40 20° WNW 04:46:22 55° N 04:50:29 10° ENE
STARLINK-1086 3.4 04:44:59 22° WNW 04:46:35 45° N 04:49:25 10° E
STARLINK-1095 3.4 04:45:12 22° WNW 04:46:47 45° N 04:49:38 10° E
Cosmos 2061 Rocket 4.4 04:41:03 10° NNW 04:46:48 40° W 04:52:29 10° SSW
Cosmos 1570 Rocket 4.0 04:41:30 10° NNW 04:46:48 66° WSW 04:52:06 10° S
STARLINK-1077 3.4 04:45:26 21° WNW 04:47:02 45° N 04:49:52 10° E
USA 215 3.5 04:40:50 10° ENE 04:47:14 59° NNW 04:52:42 15° W
STARLINK-1075 3.4 04:45:38 21° WNW 04:47:15 45° N 04:50:06 10° E
STARLINK-1093 3.4 04:45:50 21° WNW 04:47:28 45° N 04:50:19 10° E
STARLINK-1074 3.4 04:46:04 21° WNW 04:47:42 45° N 04:50:33 10° E
STARLINK-1087 3.4 04:46:17 21° WNW 04:47:55 45° N 04:50:46 10° E
STARLINK-1088 3.4 04:46:30 21° WNW 04:48:08 45° N 04:50:58 10° E
STARLINK-1115 3.4 04:46:43 21° WNW 04:48:22 45° N 04:51:13 10° E
STARLINK-1076 3.4 04:46:55 21° WNW 04:48:35 45° N 04:51:26 10° E
STARLINK-1092 3.4 04:47:09 21° WNW 04:48:50 45° N 04:51:40 10° E
STARLINK-1073 4.0 04:46:11 19° WNW 04:48:58 55° N 04:53:03 10° ENE
STARLINK-1080 3.4 04:47:22 21° WNW 04:49:03 45° N 04:51:54 10° E
STARLINK-1090 3.4 04:47:35 20° WNW 04:49:17 46° N 04:52:08 10° E
STARLINK-1089 3.4 04:47:48 20° WNW 04:49:30 46° N 04:52:22 10° E
STARLINK-1107 3.4 04:48:00 20° WNW 04:49:42 46° N 04:52:33 10° E
STARLINK-1109 3.4 04:48:14 20° WNW 04:49:57 46° N 04:52:48 10° E
STARLINK-1091 3.4 04:48:27 20° WNW 04:50:11 46° N 04:53:01 10° E
STARLINK-1072 3.4 04:48:40 20° WNW 04:50:24 46° N 04:53:15 10° E
STARLINK-1096 3.4 04:48:52 20° WNW 04:50:36 46° N 04:53:28 10° E
STARLINK-1079 3.4 04:49:05 20° WNW 04:50:51 46° N 04:53:43 10° E
STARLINK-1116 3.4 04:49:17 20° WNW 04:51:03 46° N 04:53:54 10° E
STARLINK-1130 (DARKSAT) 4.0 04:48:27 18° WNW 04:51:22 55° N 04:55:29 10° ENE
STARLINK-1094 3.4 04:49:44 19° WNW 04:51:32 46° N 04:54:23 10° E
STARLINK-1117 3.4 04:49:58 19° WNW 04:51:45 46° N 04:54:37 10° E
STARLINK-1078 3.4 04:50:11 19° WNW 04:51:59 46° N 04:54:50 10° E
STARLINK-1108 3.4 04:50:23 19° WNW 04:52:12 46° N 04:55:03 10° E
STARLINK-1071 3.4 04:50:36 19° WNW 04:52:25 46° N 04:55:16 10° E
Cosmos 2221 4.4 04:52:37 13° WNW 04:52:37 13° WNW 04:54:29 10° NW
STARLINK-1110 3.4 04:50:49 19° WNW 04:52:39 46° N 04:55:31 10° E
STARLINK-1122 3.4 04:51:16 19° WNW 04:53:07 46° N 04:55:58 10° E
STARLINK-1126 3.4 04:51:27 19° WNW 04:53:19 46° N 04:56:11 10° E
Cosmos 1818 4.1 04:48:07 10° SSW 04:53:30 63° ESE 04:58:53 10° NE
STARLINK-1082 3.4 04:51:42 18° WNW 04:53:34 46° N 04:56:25 10° E
STARLINK-1100 3.4 04:51:55 18° WNW 04:53:47 46° N 04:56:38 10° E
STARLINK-1121 4.0 04:50:58 17° WNW 04:53:59 55° N 04:58:04 10° ENE
STARLINK-1083 3.4 04:52:07 18° WNW 04:54:00 47° N 04:56:51 10° E
STARLINK-1125 3.4 04:52:20 18° WNW 04:54:14 47° N 04:57:05 10° E
CZ-2C R/B 3.5 04:51:27 10° N 04:55:41 27° WNW 04:59:45 10° WSW
Cosmos 1328 Rocket 3.6 04:51:23 10° SSW 04:55:47 62° WNW 05:00:11 10° N
STARLINK-1084 4.0 04:53:14 16° WNW 04:56:22 55° N 05:00:29 10° ENE
Iridium 51 3.9 04:52:55 10° SSW 04:56:30 67° W 04:59:58 10° N
Cosmos 540 Rocket 3.4 04:52:07 10° NNW 04:57:19 78° WSW 05:02:29 10° SSE
STARLINK-1124 3.3 04:55:45 16° WNW 04:57:58 51° N 05:00:57 10° E
STARLINK-1106 4.0 04:55:45 16° WNW 04:58:58 54° N 05:03:03 10° ENE
Cosmos 2369 4.4 04:53:22 10° NNW 04:58:59 56° NE 05:04:33 10° SE
Cosmos 1933 3.3 04:56:28 10° SSW 05:00:33 76° W 05:04:38 10° N
Cosmos 1315 Rocket 2.7 04:56:49 10° SSW 05:00:42 67° WNW 05:04:37 10° N
ALOS 2.3 04:56:29 10° N 05:01:06 60° WNW 05:05:41 10° SSW
Cosmos 1400 Rocket 3.8 04:57:41 10° SW 05:01:16 28° WNW 05:04:53 10° N
ISS -3.7 04:59:19 14° WSW 05:02:07 82° SSE 05:05:31 10° ENE
SJ-12 4.1 04:59:16 10° N 05:03:19 53° WNW 05:07:21 10° SSW
Meteor PRIRODA 4.2 05:00:26 10° N 05:03:49 35° WNW 05:07:10 10° SW
STARLINK-1112 4.0 05:00:32 14° WNW 05:03:58 54° N 05:08:03 10° E
Meteor 1-20 Rocket 4.3 05:01:20 10° NNW 05:07:05 77° W 05:12:54 10° S
Helios 1A Rocket 4.1 05:04:41 10° NNE 05:08:44 49° E 05:12:42 10° S
Cosmos 1447 Rocket 4.4 05:02:59 10° SSW 05:09:07 78° W 05:15:21 10° N
Cosmos 1602 4.3 05:05:22 10° N 05:09:10 63° ENE 05:12:58 10° SSE
H-2A R/B 3.5 05:05:34 10° N 05:09:26 29° WNW 05:13:18 10° WSW
Cosmos 1833 Rocket 4.4 05:05:16 10° S 05:10:26 38° ESE 05:15:38 10° NE
Cosmos 2233 Rocket 4.2 05:04:44 10° NNW 05:10:48 51° W 05:16:52 10° SSW
COSMOS 2406 3.7 05:06:13 10° SSW 05:11:49 66° ESE 05:17:27 10° NNE
Cosmos 1484 Rocket 3.8 05:10:24 10° N 05:13:50 28° WNW 05:17:16 10° SW
NOAA 6 4.1 05:08:54 10° NNE 05:14:07 88° ESE 05:19:16 10° SSW
GEOS 3 Rocket 4.0 05:08:57 10° NE 05:14:16 71° SE 05:19:36 10° SW
Cosmos 1633 Rocket 4.2 05:12:25 10° NW 05:15:53 23° W 05:19:19 10° SW
Cosmos 1656 3.7 05:12:10 10° NNW 05:17:51 71° WSW 05:23:30 10° SSE
FENGYUN 3A 3.9 05:12:37 10° N 05:17:54 52° WNW 05:23:09 10° SW
MOS 1-B 4.4 05:12:41 10° NNE 05:18:28 66° WNW 05:24:12 10° SSW
ADEOS Rocket 3.4 05:14:44 10° S 05:21:24 70° WSW 05:28:49 10° NNW
Cosmos 1697 Rocket 2.9 05:16:08 10° NNW 05:21:49 79° ENE 05:27:29 10° SSE
Okean O Rocket 1.5 05:19:35 10° NNE 05:23:58 79° WNW 05:28:18 10° SSW
Cosmos 1515 Rocket 3.7 05:20:18 10° SSW 05:24:36 51° WNW 05:28:55 10° N
Cosmos 1933 Rocket 4.0 05:22:27 10° NNW 05:26:32 40° W 05:30:34 10° SSW
Cosmos 1606 3.2 05:23:04 10° SW 05:26:37 37° WNW 05:30:09 10° N
BREEZE-M DEB (TANK) 3.1 05:21:52 10° WNW 05:27:18 59° SSW 05:31:06 10° SE
NOSS 3-4 (A) 4.3 05:23:09 10° NW 05:29:45 45° WSW 05:36:57 10° S
NOSS 3-4 (C) 4.2 05:23:15 10° NW 05:29:52 45° WSW 05:37:03 10° S
COSMO-SKYMED 1 3.9 05:27:29 10° SW 05:30:40 20° W 05:33:52 10° NW
Cosmos 2084 Rocket 4.2 05:26:56 10° WNW 05:31:04 37° WSW 05:35:11 10° S
CZ-4C R/B 4.1 05:25:25 10° NW 05:31:20 33° NNE 05:38:09 10° E
Cosmos 1980 Rocket 2.9 05:26:01 10° NNW 05:31:33 56° NE 05:37:02 10° SE
